Wind_Speed
25 25 25 25 25 26 27 28 28 29 29 30 29 29 30 31 31 31 33 26 28 30 33 35 37 38 40 42 43 42 44 38 38 38 43 32 26 31 32 30 21 25 24 27 25
28 28 27 26 26 27 28 28 28 30 31 32 33 33 33 35 37 35 30 30 30 32 37 38 38 38 46 46 44 48 51 54 49 39 38 33 27 30 35 35 31 29 33 28 29
30 30 30 30 30 30 30 30 31 33 33 33 34 35 35 38 42 35 35 36 34 34 36 36 34 39 46 46 50 53 60 52 49 43 34 32 26 29 31 39 35 34 41 37 32
32 32 32 33 32 32 33 33 33 34 35 36 36 37 37 40 31 22 22 21 19 23 35 37 40 45 47 52 49 53 57 49 34 35 35 29 30 29 33 32 26 34 46 43 40
34 35 35 34 33 32 32 34 35 36 37 37 37 37 40 45 47 39 40 32 27 27 26 27 44 48 55 51 49 60 46 48 40 35 37 32 33 33 27 28 18 30 34 38 37
36 37 37 37 37 36 36 39 39 40 41 41 39 37 38 48 39 36 43 40 41 44 43 37 41 45 46 52 59 47 51 43 32 37 36 35 34 33 30 29 19 26 30 29 34
37 37 38 40 43 44 44 43 43 43 42 42 42 36 33 36 27 25 31 34 30 36 32 34 36 40 46 39 48 52 32 41 56 36 34 34 35 40 38 29 32 29 32 27 27
39 40 43 45 46 47 46 44 45 43 39 35 31 25 17 15 18 22 29 29 38 32 29 28 36 36 31 42 18 54 41 53 49 48 41 37 45 35 37 35 31 34 38 36 32
43 45 46 48 51 51 51 47 46 39 31 29 17 13 12 10 21 20 26 24 24 27 35 34 29 43 36 38 47 37 56 51 37 43 52 49 37 37 26 42 37 31 34 38 38
45 47 48 48 51 52 54 48 38 29 26 17 7 7 15 23 25 20 27 17 14 15 25 37 38 41 52 50 37 39 44 42 40 32 50 50 52 33 30 31 45 37 36 37 41
48 47 47 48 50 51 50 44 40 31 15 23 22 17 16 16 16 19 20 21 24 28 24 31 50 37 57 56 56 27 26 44 44 31 30 46 40 42 30 33 35 45 39 31 34
49 51 50 49 47 43 40 37 33 29 13 24 28 21 22 24 25 22 21 21 17 25 26 28 41 57 37 45 52 45 29 35 30 35 34 40 49 44 47 32 33 35 45 41 33
50 49 50 48 43 35 34 33 27 24 11 9 25 20 28 25 19 24 29 22 20 17 28 29 26 35 37 43 46 49 51 30 27 29 31 31 40 41 40 36 33 35 35 35 39
51 49 48 48 42 37 31 29 21 21 5 17 33 28 24 26 19 28 26 24 21 15 15 25 27 25 27 47 42 45 53 52 26 26 12 33 6 40 37 39 35 40 43 39 38
51 50 47 40 40 36 30 22 20 15 4 16 31 24 24 24 23 26 29 30 14 17 7 9 15 12 15 17 32 23 33 44 46 25 23 29 11 24 38 37 44 39 44 46 45
48 48 45 43 36 30 21 18 12 8 6 18 29 31 23 27 24 20 26 29 10 17 13 10 12 9 14 12 6 14 15 31 34 29 14 31 29 27 35 46 45 42 43 41 47
46 42 38 40 40 30 20 10 6 13 22 27 36 32 23 31 24 24 27 32 33 20 28 19 12 14 17 10 14 6 15 4 8 10 4 37 30 8 39 40 42 44 42 41 40
43 35 37 36 30 29 18 17 15 18 22 27 29 23 26 32 22 25 22 31 30 31 18 15 7 20 9 6 5 18 17 3 1 2 4 22 9 16 27 33 40 35 31 38 40
40 35 38 35 36 28 32 29 14 24 25 27 23 25 27 31 22 25 17 30 26 29 23 17 9 19 12 3 4 6 14 16 1 1 2 8 5 8 21 27 31 35 32 31 36
38 36 35 33 33 38 40 25 22 21 20 19 25 22 26 32 29 25 27 21 31 28 20 21 8 19 17 16 3 4 2 9 9 4 1 5 7 6 22 25 28 30 30 33 36
39 31 32 32 31 40 35 22 18 18 19 21 24 20 23 27 23 25 26 15 28 27 20 21 17 14 20 22 30 20 13 4 10 4 3 5 4 11 17 27 27 24 22 24 32
42 37 32 28 36 32 32 22 21 21 20 19 24 19 23 21 17 25 22 20 23 26 24 19 15 10 13 21 25 29 27 21 6 6 2 4 3 8 14 16 21 16 12 20 25
42 34 30 33 36 34 24 26 22 23 21 24 23 22 22 18 13 22 19 15 20 23 21 20 17 11 4 7 24 29 29 19 3 5 11 3 3 12 13 14 17 16 14 15 17
38 30 23 31 28 30 29 31 27 22 19 20 14 21 25 23 15 20 25 20 18 17 14 7 15 12 7 6 14 23 25 25 13 10 8 9 11 12 12 13 15 15 13 15 16
36 29 26 30 30 27 27 30 32 29 22 20 17 21 20 18 18 23 25 25 23 19 17 9 14 10 8 10 12 17 19 23 24 19 12 8 10 10 11 14 15 15 15 15 15
36 31 20 26 26 26 31 32 32 29 18 23 18 18 18 19 14 18 20 25 28 30 20 15 10 10 4 9 6 23 19 19 21 17 19 13 14 5 9 12 15 16 15 14 13
34 32 24 22 23 25 28 29 28 27 16 18 17 16 16 17 13 11 12 18 21 24 20 18 12 12 5 8 3 10 21 17 16 15 12 17 6 4 9 11 13 15 15 14 14
Wind_Direction
344 342 339 333 327 321 317 315 312 308 303 299 295 292 289 286 282 277 276 279 259 250 246 238 230 223 218 221 220 220 220 230 222 220 230 222 220 238 231 214 218 235 209 219 220
343 339 337 335 328 324 320 317 313 306 301 298 295 290 285 280 277 273 279 268 254 245 239 238 232 226 219 217 215 212 222 225 229 229 233 230 221 237 216 205 202 216 229 222 219
346 343 339 335 332 326 321 317 310 304 300 296 292 288 284 279 274 278 273 268 258 243 238 235 226 227 221 221 213 217 226 229 230 229 231 230 240 234 224 225 226 213 224 224 224
344 341 337 336 334 331 326 320 314 308 302 296 289 284 279 273 269 270 256 253 244 231 233 227 219 216 217 216 220 223 225 226 234 226 228 227 232 234 231 236 238 218 231 231 225
346 344 342 339 337 333 328 322 317 311 304 299 293 285 275 269 267 271 262 251 238 242 241 238 227 219 216 217 220 227 227 235 216 216 214 225 232 230 229 223 225 218 225 227 225
351 347 344 341 338 337 335 330 324 318 313 307 300 290 278 267 276 261 259 255 249 253 252 240 232 221 230 222 218 226 229 227 230 238 220 222 230 229 211 207 214 208 216 222 218
351 348 346 343 342 340 340 334 326 321 314 306 301 296 281 292 276 266 255 256 249 238 243 245 227 219 212 232 230 227 230 234 230 220 228 222 230 229 210 204 222 216 214 212 217
353 351 350 347 344 341 340 339 332 326 320 311 306 304 309 260 264 238 255 262 259 242 230 238 219 213 219 218 224 222 228 230 231 225 226 219 235 231 216 201 213 228 223 223 221
354 355 352 349 345 341 342 341 333 329 322 315 301 306 290 252 245 246 240 254 268 250 235 218 213 219 211 222 223 224 221 223 223 228 218 220 231 224 221 209 207 225 229 225 219
356 356 352 349 345 344 340 338 339 341 344 332 335 273 273 335 321 314 305 283 258 243 225 219 214 218 218 218 219 205 214 223 220 206 210 221 229 224 232 218 210 209 224 226 226
355 353 353 351 347 343 336 338 342 350 9 40 19 12 344 344 328 309 301 289 283 262 229 222 224 225 216 220 223 233 228 214 221 225 210 214 223 229 205 212 215 212 213 219 231
357 354 352 351 348 343 341 351 352 350 30 32 2 358 358 354 326 338 334 333 306 251 249 236 226 226 221 218 224 221 232 225 218 230 225 232 238 224 219 216 210 218 219 217 224
356 353 351 350 348 350 349 348 344 348 47 38 10 352 356 350 355 357 350 342 328 270 241 253 244 232 232 224 226 223 224 223 203 198 214 221 225 221 224 223 220 209 207 214 214
354 354 352 349 348 354 358 345 343 339 231 13 8 8 355 359 2 341 348 351 347 315 275 254 262 260 238 223 213 215 227 220 198 201 200 201 215 215 214 215 216 213 207 202 213
355 353 353 353 351 356 350 350 345 344 23 0 347 1 360 9 347 359 356 353 352 343 276 228 256 266 260 252 218 213 224 217 220 205 203 198 229 209 208 207 218 213 210 215 215
357 353 351 354 358 357 354 346 354 15 8 348 348 357 357 1 356 347 3 7 7 6 13 289 266 275 245 263 255 224 194 209 208 220 211 205 194 219 205 206 211 211 216 217 213
358 354 357 356 2 3 4 5 8 28 347 340 341 350 356 2 355 357 13 23 25 359 352 9 25 276 267 188 230 136 171 162 188 211 186 197 196 212 193 199 204 211 213 213 213
0 357 6 5 10 14 19 26 58 2 356 339 347 356 4 0 359 356 19 20 20 16 0 359 337 12 16 220 167 201 202 150 211 122 113 176 185 186 181 188 194 205 217 214 218
4 7 11 16 25 26 29 49 27 358 345 348 358 4 356 359 360 359 10 21 18 22 359 357 333 359 11 210 160 198 213 224 10 344 88 155 111 160 180 184 192 206 213 214 215
6 19 16 23 30 32 42 47 25 9 5 10 14 2 358 357 357 12 16 9 6 17 4 349 307 9 34 56 118 18 187 184 197 170 213 151 142 164 186 188 196 206 216 224 222
9 24 23 26 31 34 40 34 21 15 20 14 2 360 352 358 15 21 12 6 7 6 10 4 9 15 58 39 37 37 26 22 154 123 151 168 88 175 197 197 198 200 215 222 215
17 25 26 19 35 39 30 26 9 16 19 25 10 17 1 359 3 13 6 1 2 2 8 15 354 336 82 46 36 39 29 27 20 100 133 47 100 166 181 193 194 189 214 207 201
19 21 22 20 35 28 28 31 21 13 19 10 1 10 14 8 9 359 3 8 10 11 5 20 12 346 28 14 18 23 21 23 56 80 15 35 109 140 154 169 170 180 181 182 185
22 23 24 23 36 21 22 21 18 19 21 10 1 10 16 22 32 10 20 25 10 7 17 48 35 50 47 10 3 14 18 21 47 47 17 67 121 139 147 158 155 158 167 166 170
24 28 22 21 27 20 22 16 16 6 15 3 12 14 13 4 11 11 19 19 34 26 29 41 25 40 25 31 35 26 30 28 39 53 63 97 113 130 151 160 159 161 160 168 175
23 23 23 27 25 18 18 15 8 7 0 5 7 10 12 1 349 353 12 22 23 13 26 26 23 5 45 20 45 36 42 33 35 62 75 80 84 87 137 163 164 165 166 165 162
17 19 23 26 20 17 13 11 6 359 13 358 358 2 5 358 358 2 8 18 32 8 15 17 16 12 351 4 82 10 13 31 27 32 72 45 77 107 129 147 167 174 174 172 168
Height
3080 3077 3073 3069 3064 3060 3056 3052 3048 3045 3041 3038 3035 3032 3030 3027 3025 3024 3023 3029 3028 3027 3030 3033 3035 3039 3043 3044 3049 3056 3051 3045 3052 3058 3059 3071 3075 3077 3080 3087 3091 3091 3090 3092 3098
3077 3073 3069 3065 3061 3056 3052 3048 3043 3039 3035 3032 3028 3025 3022 3018 3015 3014 3018 3017 3017 3019 3017 3021 3026 3032 3030 3034 3038 3038 3033 3035 3047 3054 3057 3065 3070 3071 3073 3077 3083 3083 3086 3090 3092
3073 3069 3065 3061 3056 3051 3046 3042 3037 3032 3028 3024 3020 3017 3014 3009 3004 3008 3008 3005 3006 3007 3010 3012 3020 3022 3021 3025 3026 3027 3017 3033 3040 3049 3055 3059 3065 3064 3066 3068 3075 3076 3081 3084 3088
3071 3065 3060 3055 3051 3045 3040 3034 3029 3024 3018 3014 3010 3006 3003 2998 2999 2994 2995 2996 2996 2995 2997 3001 3005 3007 3011 3012 3019 3019 3021 3028 3036 3044 3049 3053 3061 3058 3060 3061 3070 3073 3075 3079 3084
3067 3061 3056 3051 3046 3040 3034 3027 3020 3014 3008 3003 2998 2994 2988 2983 2982 2990 2987 2990 2989 2987 2989 2992 2993 2996 2994 3003 3013 3007 3017 3025 3030 3034 3039 3046 3048 3052 3053 3059 3064 3066 3067 3072 3076
3064 3058 3051 3045 3039 3034 3028 3018 3010 3002 2996 2990 2985 2980 2975 2967 2976 2978 2972 2976 2976 2976 2978 2981 2982 2990 2994 2995 2997 3005 3011 3018 3023 3027 3032 3035 3039 3042 3047 3055 3056 3059 3062 3066 3071
3062 3055 3047 3039 3031 3023 3017 3009 3000 2993 2986 2978 2971 2967 2963 2965 2965 2965 2965 2960 2961 2964 2967 2970 2976 2980 2987 2991 2996 3001 3006 3010 3009 3018 3021 3030 3027 3028 3042 3048 3051 3054 3058 3062 3065
3057 3050 3041 3032 3023 3014 3008 3000 2990 2983 2975 2967 2962 2958 2959 2954 2952 2949 2951 2951 2953 2957 2959 2964 2970 2972 2977 2985 2987 2992 3000 2991 2995 3009 3015 3022 3012 3024 3033 3040 3045 3048 3052 3057 3060
3051 3043 3033 3023 3015 3006 2999 2993 2983 2975 2967 2961 2958 2955 2955 2951 2948 2945 2943 2943 2945 2946 2949 2956 2961 2962 2969 2969 2977 2977 2964 2975 2988 2993 3006 3008 3009 3018 3026 3032 3038 3042 3046 3050 3055
3046 3037 3029 3020 3010 3000 2991 2985 2976 2969 2962 2955 2955 2956 2951 2947 2943 2939 2938 2937 2938 2940 2943 2947 2947 2948 2952 2954 2946 2954 2963 2973 2978 2982 2992 2998 2999 3011 3019 3023 3029 3036 3038 3044 3047
3042 3034 3027 3017 3007 2997 2988 2979 2972 2967 2960 2955 2957 2955 2951 2948 2945 2939 2936 2932 2933 2936 2934 2938 2939 2929 2935 2943 2951 2957 2959 2963 2973 2978 2984 2985 2996 3002 3011 3014 3021 3027 3033 3037 3040
3040 3030 3022 3013 3005 2995 2984 2974 2968 2965 2961 2959 2958 2954 2952 2947 2941 2937 2934 2931 2928 2926 2930 2930 2927 2929 2935 2942 2948 2952 2956 2958 2968 2973 2978 2983 2986 2995 3002 3007 3013 3020 3025 3033 3037
3038 3029 3018 3011 3002 2995 2983 2974 2969 2966 2964 2962 2960 2956 2950 2947 2941 2937 2933 2928 2922 2920 2921 2922 2922 2926 2930 2933 2938 2942 2949 2954 2960 2968 2971 2980 2982 2986 2992 3001 3007 3013 3019 3025 3030
3034 3025 3016 3006 2999 2988 2981 2973 2968 2964 2963 2965 2958 2957 2951 2948 2944 2939 2933 2928 2923 2919 2916 2916 2918 2919 2921 2924 2929 2932 2938 2951 2955 2960 2963 2968 2971 2977 2985 2992 2998 3003 3010 3016 3019
3031 3021 3014 3002 2993 2986 2979 2973 2969 2965 2966 2967 2962 2960 2954 2951 2947 2940 2933 2925 2921 2916 2917 2916 2915 2915 2917 2918 2918 2921 2933 2940 2949 2952 2961 2962 2968 2966 2978 2984 2986 2991 3001 3009 3011
3029 3019 3010 3003 2996 2986 2978 2973 2970 2969 2971 2970 2966 2958 2955 2951 2946 2940 2935 2927 2919 2915 2912 2911 2912 2915 2917 2917 2917 2920 2925 2933 2941 2946 2946 2952 2959 2961 2967 2972 2978 2985 2992 3000 3006
3029 3019 3008 3000 2988 2983 2977 2973 2973 2979 2981 2974 2966 2960 2956 2951 2946 2941 2936 2928 2924 2919 2914 2912 2912 2913 2917 2921 2919 2918 2922 2928 2930 2934 2934 2944 2955 2954 2957 2963 2970 2977 2985 2993 2999
3029 3021 3010 3001 2993 2984 2979 2976 2978 2986 2982 2976 2969 2964 2959 2953 2947 2946 2940 2935 2932 2928 2922 2919 2916 2913 2914 2915 2916 2921 2926 2925 2926 2926 2932 2936 2940 2947 2952 2958 2965 2972 2979 2986 2992
3028 3020 3011 3002 2995 2988 2981 2977 2988 2987 2984 2976 2970 2965 2962 2957 2953 2947 2944 2940 2938 2934 2933 2926 2921 2919 2915 2915 2920 2922 2922 2925 2929 2931 2933 2936 2940 2944 2949 2955 2963 2969 2974 2980 2986
3029 3018 3012 3004 2998 2992 2983 2989 2992 2990 2984 2980 2975 2972 2966 2961 2955 2949 2947 2945 2941 2939 2937 2934 2926 2923 2919 2917 2917 2918 2921 2927 2931 2931 2933 2936 2941 2944 2948 2954 2959 2964 2969 2974 2979
3030 3020 3016 3008 3002 2994 2990 2996 2994 2992 2987 2983 2980 2975 2972 2966 2962 2958 2956 2951 2945 2941 2939 2936 2932 2929 2924 2925 2926 2923 2922 2921 2923 2926 2929 2937 2946 2944 2946 2950 2956 2961 2964 2968 2973
3028 3022 3018 3012 3004 3001 2999 2999 2997 2992 2989 2986 2983 2978 2974 2970 2965 2962 2961 2957 2952 2947 2941 2939 2937 2933 2933 2932 2930 2928 2927 2924 2923 2929 2932 2931 2945 2944 2946 2950 2955 2959 2960 2965 2970
3028 3023 3021 3016 3006 3006 3006 3002 2999 2994 2991 2987 2984 2982 2977 2974 2970 2967 2963 2960 2956 2951 2948 2945 2943 2938 2935 2938 2936 2932 2931 2929 2927 2928 2931 2932 2947 2947 2949 2952 2954 2957 2961 2965 2969
3031 3029 3023 3018 3015 3012 3008 3004 3000 2997 2993 2990 2988 2983 2978 2976 2974 2971 2965 2962 2959 2956 2952 2950 2950 2949 2952 2951 2947 2941 2937 2934 2931 2933 2938 2939 2943 2946 2948 2950 2953 2957 2962 2966 2969
3036 3031 3027 3022 3017 3015 3011 3007 3002 2996 2995 2991 2988 2985 2982 2978 2975 2972 2969 2965 2962 2959 2955 2954 2954 2953 2953 2951 2950 2947 2945 2942 2939 2939 2940 2946 2945 2948 2949 2952 2956 2960 2964 2967 2970
3038 3035 3031 3026 3022 3019 3014 3008 3004 3000 2997 2993 2991 2987 2984 2982 2980 2976 2973 2970 2966 2962 2960 2958 2957 2955 2955 2953 2952 2950 2950 2948 2946 2945 2946 2949 2950 2952 2953 2956 2960 2964 2966 2969 2972
3041 3036 3032 3029 3025 3021 3017 3012 3008 3002 3000 2996 2992 2989 2986 2983 2981 2979 2976 2975 2970 2970 2965 2961 2959 2957 2956 2956 2956 2957 2957 2957 2957 2953 2952 2952 2955 2956 2957 2959 2963 2966 2968 2971 2975